Regional Weather Roundup
Issued by NWS Newport/Morehead, NC

Current Version | Previous Version | Graphics & Text | Print | Product List | Glossary Off
Versions: 1 2 3 4 5 6 7 8 9 10 11 12 13 14 15 16 17 18 19 20 21 22 23 24 25 26 27 28 29 30 31 32 33 34 35 36 37 38 39 40 41 42 43 44 45 46 47 48 49 50
000 ASUS42 KMHX 221910 RWRMHX WEATHER ROUNDUP FOR EASTERN NORTH CAROLINA NATIONAL WEATHER SERVICE NEWPORT/MOREHEAD CITY NC 300 PM EDT WED OCT 22 2014 NOTE: "FAIR" INDICATES FEW OR NO CLOUDS BELOW 12,000 FEET WITH NO SIGNIFICANT WEATHER AND/OR OBSTRUCTIONS TO VISIBILITY NCZ015>017-031-032-045>047-102-103-222000- NORTH COAST CITY SKY/WX TMP DP RH WIND PRES REMARKS EDENTON CLOUDY 57 50 76 N20G28 29.87S ELIZABETH CITY PTSUNNY 62 51 67 NW21G28 29.83F KITTY HAWK CLOUDY 58 51 77 NW15G23 29.80S MANTEO CLOUDY 58 51 78 NW15G25 29.82S $$ NCZ045>047-081-094-103-104-222000- CENTRAL COAST CITY SKY/WX TMP DP RH WIND PRES REMARKS FRISCO CLOUDY 58 50 75 NW16G25 29.85S SWANQUARTER N/A 59 N/A N/A NW9G25 29.85S $$ NCZ095-097-098-100-101-222000- SOUTHERN COAST CITY SKY/WX TMP DP RH WIND PRES REMARKS BEAUFORT CLOUDY 63 48 58 NW20 29.90S CEDAR ISLAND N/A 61 N/A N/A NW22G33 29.91 JACKSONVILLE CLOUDY 64 45 49 NW18G24 29.92S PINEY ISLAND CLOUDY 63 47 55 NW21G30 29.89S WILMINGTON MOSUNNY 68 45 43 NW13G21 29.94S $$ NCZ011>013-027>030-043-044-078>080-089-090>093-098-222000- COASTAL PLAIN CITY SKY/WX TMP DP RH WIND PRES REMARKS AHOSKIE CLOUDY 56 49 78 NW6G17 29.91S CLINTON PTSUNNY 67 47 49 NW10 29.96S ELIZABETHTOWN SUNNY 68 43 41 W13G20 29.96S GOLDSBORO MOSUNNY 65 49 56 NW17G25 29.93S GREENVILLE CLOUDY 61 46 59 N16G24 29.95S HAVELOCK PTSUNNY 64 46 52 NW17G28 29.91F KENANSVILLE CLOUDY 64 44 47 NW9 29.95F KINSTON PTSUNNY 63 46 55 NW15G22 29.94S NEW BERN CLOUDY 64 46 52 NW10 29.92S RICHLANDS CLOUDY 63 45 51 NW8 29.94S ROCKY MOUNT CLOUDY 65 47 52 NW10G21 29.94F WASHINGTON CLOUDY 60 47 63 NW13G23 29.91S WHITEVILLE SUNNY 67 43 42 NW5 29.96S $$ AMZ130-135-150-152-154-156-158-170-250-252-270-ANZ085-086-088-633-658-670-222000- MARINE OBSERVATIONS STATION/POSITION TIME TEMP WIND PRES WAVE SWELL AIR SEA DIR/SP/G HT/PER HT/PER (UTC) (F) (DEG/KT/KT) (MB) (FT/S) (FT/S) CHESAPEAKE LIGHT 1800 60 330/ 27/ 29 1008.1 64 E VA BEACH 1900 58 69 320/ 17/ 21 1005.5 5/ 6 2/10 DUCK 1900 59 68 300/ 18/ 25 1008.3 2 E DUCK 1900 N/A 3/ 4 10 NE DUCK 1900 70 N/A 5/ 5 OREGON INLET 1900 58 67 290/ 20/ 26 1009.3 13E OREGON INLT 1900 73 N/A 5/ 5 HATTERAS CG 1900 60 69 300/ 21/ 25 1011.1 DIAMOND BUOY 1900 62 300/ 25/ 31 1009.9 5/ 5 2/11 17 S OCRACOKE NOT AVBL CAPE LOOKOUT 1800 63 300/ 15/ 19 1012.2 BEAUFORT LAB 1900 63 69 320/ 7/ 14 1011.7 30 SE NEW RIVER 1900 64 76 310/ 19/ 23 1012.4 3/ 4 2/10 5 SE WRIGHTSVLE 1900 63 73 330/ 14/ 17 N/A 225 S CAPE HAT 1816 74 79 300/ 21/ 27 1011.2 5/ 6 2/10 41 SE CHARLESTON 1900 64 79 330/ 12/ 16 1015.3 4/ 6 2/ 6 $$

USA.gov is the U.S. government's official web portal to all federal, state and local government web resources and services.